Theta_e
314 313 316 319 324 323 324 333 332 331 331 322 318 320 318 321 324 320 320 319 320 320 318 324 326 323 324 328 332 335 334 339 340 332 337 339 336 338 338 337 335 336 337 338 338 338 339 340 339 339 339 338 338 335 333 331 329 331 327 324 322 319 321 326 330 333 333 332 332 331 330 330 332 333 333 335 335 333 332 331 329 329 325 326 331 332 331 330 330 330 330 331 330 328 327 329 329
315 314 318 321 324 322 325 337 336 329 329 319 316 322 318 320 322 320 324 321 321 319 321 331 332 330 331 333 336 333 330 336 333 329 336 337 338 339 337 337 335 335 337 338 339 339 339 340 339 339 339 338 338 335 334 332 329 331 328 325 323 319 321 325 329 332 333 332 332 331 331 332 332 331 332 334 334 332 330 330 329 328 326 327 331 331 330 330 330 330 331 330 329 328 328 328 328
315 317 321 324 323 325 333 336 332 328 326 319 319 324 320 320 321 323 327 321 318 320 325 330 329 328 331 335 335 330 330 335 335 334 338 338 339 339 338 337 335 336 337 338 339 339 339 339 338 338 338 337 337 335 334 331 329 331 329 326 324 320 321 325 329 332 332 332 332 331 331 332 331 330 331 332 333 333 331 330 327 325 326 329 331 330 329 329 330 330 331 330 330 330 330 329 328
318 321 323 324 325 332 346 340 334 330 323 321 319 322 327 326 325 325 325 321 318 321 324 323 325 322 328 339 334 333 337 337 338 338 339 339 339 339 338 336 335 336 336 338 338 338 338 338 338 338 338 337 336 335 333 330 329 330 328 326 325 321 322 326 327 331 332 331 332 331 331 331 331 331 331 333 333 334 332 330 327 323 327 330 330 329 329 329 330 330 331 330 331 330 330 329 327
320 323 321 322 326 332 339 332 333 330 319 322 320 321 336 333 326 324 321 320 319 321 322 325 331 325 328 336 331 335 339 338 338 337 339 338 338 338 338 336 335 336 337 338 338 338 338 338 339 339 338 337 336 334 331 329 328 329 328 327 326 323 322 325 327 330 332 331 331 331 332 331 332 333 333 333 333 333 332 330 326 324 328 330 329 329 328 329 330 330 330 330 330 329 329 328 327
322 322 322 320 319 323 327 320 321 325 323 326 323 324 335 330 324 324 320 318 319 320 321 324 332 332 335 334 329 333 336 337 339 337 338 339 339 338 337 335 335 336 337 337 338 338 337 338 338 338 338 337 336 333 331 330 329 329 328 327 327 325 321 322 326 329 331 331 331 330 331 331 332 333 333 332 331 332 331 330 327 326 329 328 328 328 328 329 329 330 330 330 329 328 327 327 326
321 322 328 326 321 324 330 325 320 323 320 321 328 328 328 326 323 322 320 319 318 317 318 323 329 333 336 331 329 332 333 335 336 338 339 339 339 339 337 335 335 336 336 337 338 338 337 337 338 338 337 337 336 333 331 329 330 330 329 328 327 326 323 321 323 327 330 331 331 330 330 329 331 332 332 330 330 331 331 330 327 327 328 328 328 328 329 329 329 330 330 331 329 327 326 326 326
322 323 330 334 331 332 332 325 322 324 318 316 324 327 326 325 322 321 321 321 319 317 318 323 327 331 330 329 335 335 333 335 336 339 339 340 340 339 338 336 335 335 337 337 337 337 337 337 338 338 337 337 336 333 330 328 329 330 329 329 327 327 325 321 319 322 327 331 331 330 329 328 329 331 329 328 330 332 331 328 324 326 328 327 328 328 329 329 329 330 330 330 328 327 326 325 325
320 321 326 329 331 335 330 319 317 321 320 319 320 323 324 321 320 320 321 319 318 318 317 320 321 322 327 334 341 335 334 336 337 339 339 340 340 340 338 336 335 336 337 337 337 337 337 337 337 337 337 337 335 333 330 328 329 330 330 330 329 327 326 323 319 317 322 328 331 330 328 326 327 329 329 328 331 332 331 327 323 325 327 327 328 328 328 329 329 330 329 328 327 326 325 325 325
321 321 325 330 333 329 320 316 320 321 319 321 321 323 322 319 320 318 319 318 316 318 316 319 324 326 330 338 341 334 334 336 337 340 340 340 340 340 338 336 335 336 338 337 338 337 337 337 337 337 337 336 336 334 331 328 329 330 330 331 330 327 326 324 321 317 316 323 329 330 327 325 326 329 330 330 331 332 331 329 325 325 327 326 327 328 328 328 329 329 329 328 327 326 326 326 326
326 327 333 334 332 325 319 319 324 326 320 319 320 321 320 318 318 317 318 317 317 319 316 318 329 336 334 336 337 332 332 336 338 340 339 340 339 339 338 338 336 336 337 337 337 337 337 337 336 336 336 337 336 335 332 329 328 329 330 331 331 328 327 325 322 318 314 318 327 330 328 326 327 329 331 330 331 331 330 329 326 326 327 326 327 327 328 328 328 328 328 328 327 326 326 326 326
324 330 346 338 327 326 327 324 322 325 320 319 320 318 318 316 316 317 318 318 319 321 319 317 325 335 335 333 332 330 333 336 338 340 340 340 339 339 339 338 337 336 337 337 337 337 337 336 335 335 335 335 334 334 333 330 327 328 330 330 331 329 327 326 323 320 314 315 324 328 329 328 328 329 330 329 330 330 329 328 326 325 326 326 327 327 327 327 327 327 327 327 326 326 325 325 325
332 333 343 326 321 326 326 324 320 323 321 322 321 316 315 315 317 321 321 319 320 320 317 316 324 333 334 333 332 331 335 336 337 340 339 340 340 340 339 338 337 337 338 337 337 337 337 337 335 335 334 334 333 333 333 331 328 328 329 329 331 329 327 326 325 322 316 314 319 325 328 329 328 328 329 329 329 328 328 327 325 324 325 326 326 326 325 326 326 326 326 326 325 325 325 325 325
335 340 343 323 319 326 324 322 319 320 321 325 322 315 314 314 317 320 321 321 320 320 314 314 324 334 332 331 335 335 335 336 337 339 338 340 340 339 340 339 338 338 339 339 338 337 336 337 337 336 335 334 332 332 333 331 328 328 329 330 330 330 328 327 326 323 319 314 315 319 324 327 327 327 327 329 329 327 326 325 324 324 325 325 325 325 324 325 325 325 325 325 325 325 325 325 325
328 342 347 330 320 322 321 320 321 322 323 324 318 315 315 313 315 317 320 323 321 316 311 311 318 323 326 333 339 336 335 336 337 338 338 339 339 340 339 339 340 339 340 340 339 337 336 337 337 337 336 335 332 330 333 332 329 328 329 330 330 330 329 327 326 325 322 318 314 315 319 323 324 324 323 325 328 326 324 324 324 324 325 325 324 324 323 323 323 323 324 324 324 324 324 325 324
331 342 338 326 319 317 317 318 321 322 322 323 315 314 317 312 313 316 315 318 316 314 316 315 314 318 322 329 330 328 334 337 336 337 337 338 338 339 339 340 340 339 340 340 340 338 336 337 337 337 336 336 332 327 331 333 329 329 330 330 330 330 329 327 327 326 324 321 316 313 314 317 319 320 320 321 324 325 323 323 323 323 324 324 323 323 322 321 322 322 323 324 324 323 324 324 324
329 340 335 323 320 318 317 318 320 323 324 322 315 315 318 314 313 313 310 315 316 316 323 320 318 323 327 328 323 323 334 337 336 337 336 337 337 338 339 340 340 339 340 340 340 339 337 337 337 337 336 336 335 327 328 332 330 330 331 330 330 330 330 328 327 327 325 323 320 315 313 313 314 316 317 318 320 323 322 321 323 322 322 323 323 321 321 321 321 321 322 322 322 322 322 323 323
327 337 335 324 324 322 320 323 320 322 323 319 317 317 319 317 314 313 312 316 317 316 320 323 326 327 326 327 323 326 335 335 336 336 336 336 336 337 339 339 339 339 340 340 340 339 337 336 337 337 337 336 336 330 327 330 330 330 331 331 331 330 330 329 328 328 326 324 322 318 314 313 313 313 314 315 317 319 320 319 321 322 321 323 322 321 321 321 321 321 321 321 321 321 321 321 321
334 335 329 334 338 323 320 324 318 318 319 318 318 316 317 317 316 314 315 316 316 316 317 323 332 332 328 327 326 331 335 334 336 335 335 336 336 337 338 339 339 339 339 340 340 340 338 336 336 337 337 336 337 333 327 328 329 330 332 331 331 331 330 330 329 329 327 326 324 321 317 314 313 313 312 311 313 316 317 317 319 320 321 321 321 321 321 321 321 320 320 320 320 320 320 319 320
330 330 325 337 340 323 318 321 317 317 318 319 318 314 314 315 315 313 316 316 315 319 319 321 331 341 337 329 328 332 333 333 334 334 334 334 335 336 338 339 338 339 339 340 340 340 339 337 336 336 336 336 336 335 329 328 328 329 331 332 332 332 331 330 330 329 328 327 325 323 320 316 314 314 312 309 310 313 315 316 317 318 319 320 321 320 319 320 320 320 320 320 320 320 319 319 319
321 326 328 330 328 321 318 318 317 315 316 319 318 315 314 313 313 313 316 317 316 319 320 320 329 347 340 329 329 331 331 332 332 333 333 333 335 336 337 338 338 339 338 339 339 340 339 337 336 336 336 336 336 336 332 328 328 329 330 331 332 332 331 331 331 330 329 328 326 325 322 318 316 315 314 310 308 309 312 314 315 317 318 319 319 317 318 320 320 319 319 319 319 319 319 319 319
316 319 324 325 320 317 317 318 317 314 315 318 317 316 315 313 313 315 317 319 320 318 319 319 324 342 338 330 330 329 330 331 331 332 332 333 334 335 337 338 338 338 338 338 338 340 339 338 336 335 336 336 336 336 335 331 328 328 329 331 332 333 332 331 331 331 330 329 327 326 324 320 318 316 316 314 308 306 308 310 313 315 316 316 315 314 317 319 319 318 318 318 319 319 319 319 319
319 316 317 321 319 317 317 318 317 315 316 318 318 315 314 314 314 315 315 318 320 317 316 314 317 331 332 328 329 330 330 329 330 331 331 332 333 335 337 337 338 338 338 338 338 339 339 338 337 336 336 336 337 336 336 334 330 328 329 331 332 333 333 333 332 331 331 330 329 327 325 322 320 318 317 316 312 306 304 305 308 312 312 312 313 313 315 318 318 317 318 318 318 319 319 319 319
323 319 315 317 317 317 317 317 318 317 318 318 315 313 314 317 316 312 313 316 317 314 309 306 314 324 327 328 329 329 329 329 330 331 331 333 333 335 336 336 337 337 337 338 337 338 338 338 337 337 336 336 336 336 337 336 334 331 330 331 332 333 333 333 333 332 332 331 330 328 326 324 322 320 318 317 315 310 304 302 304 307 308 309 312 314 314 316 317 317 317 317 318 318 318 319 319
320 318 316 316 315 317 317 317 319 318 317 315 313 314 315 316 313 312 316 319 318 314 310 313 321 326 327 329 330 328 328 328 329 331 331 332 332 333 334 335 336 336 337 337 337 337 338 338 336 338 338 336 336 336 337 337 336 335 333 332 333 333 333 333 333 333 332 331 330 329 327 326 323 322 321 319 318 314 307 302 302 304 305 307 311 314 314 314 315 316 316 317 317 317 318 318 318
317 318 318 316 315 315 315 315 318 318 316 315 315 316 315 313 312 315 321 320 317 317 321 328 330 331 330 330 329 327 327 327 328 329 330 331 331 332 332 334 335 336 336 336 337 337 338 338 336 337 338 338 337 336 336 336 336 336 335 334 333 333 333 333 333 333 332 331 331 330 328 326 325 324 323 321 319 317 310 304 302 302 304 306 310 313 315 314 314 315 315 316 316 316 317 316 316
318 319 318 317 317 315 315 316 316 317 316 315 316 316 316 314 314 317 319 315 314 321 328 328 334 337 331 329 328 326 326 326 327 327 328 329 329 330 331 332 333 335 335 335 336 336 337 338 337 336 337 338 337 337 336 336 336 336 336 335 334 334 334 334 334 334 333 332 331 331 329 327 326 325 325 323 321 319 315 307 303 302 303 306 309 311 314 315 314 314 313 313 314 315 315 314 315
316 319 317 318 319 315 314 316 315 316 315 314 316 316 315 314 316 318 316 313 313 321 328 326 333 336 329 329 328 325 325 326 327 326 326 327 327 329 329 331 332 333 335 335 335 335 336 337 337 337 336 337 337 337 337 337 336 335 336 336 335 335 335 335 335 335 334 333 332 331 331 328 326 326 325 325 323 321 319 313 306 303 303 305 308 311 313 314 314 313 313 312 312 312 313 313 314
315 318 317 318 323 319 314 315 315 316 314 315 316 314 316 316 317 318 314 313 313 317 324 324 325 326 325 327 326 325 324 324 325 325 326 326 327 327 328 330 331 332 333 334 335 335 336 336 337 337 336 336 336 335 336 337 337 336 335 335 336 336 335 336 335 335 335 334 333 332 332 330 328 327 326 326 325 323 322 318 310 305 304 305 308 311 313 313 313 313 312 311 311 311 312 313 314
316 317 319 319 322 319 314 314 316 315 315 315 314 312 319 321 317 315 312 312 313 316 320 320 320 318 318 321 323 325 322 321 322 323 326 326 326 326 326 327 328 329 330 331 333 334 335 336 337 338 337 337 336 335 334 335 337 337 335 334 335 336 336 336 336 336 335 335 334 333 332 331 330 328 327 327 326 325 324 323 318 310 305 305 308 311 312 312 312 312 311 310 310 310 311 312 314
316 313 322 323 315 319 319 316 316 314 314 314 312 312 319 322 318 314 311 311 312 316 320 319 318 316 315 316 318 320 319 318 320 322 324 324 325 325 325 325 325 326 327 328 329 331 334 335 336 337 337 337 337 336 335 334 335 337 337 336 335 336 336 336 336 336 335 335 335 334 333 332 331 329 329 328 327 326 326 326 323 316 308 305 308 310 311 311 311 310 310 310 309 309 311 311 313
323 313 321 323 313 321 325 316 317 316 313 313 311 315 320 320 319 314 311 314 314 315 321 318 317 316 315 314 313 314 314 313 315 318 320 322 323 324 323 323 323 323 324 324 325 327 330 331 333 335 336 337 337 337 336 335 335 336 337 337 336 336 335 335 335 335 335 335 335 335 334 333 331 331 330 329 328 327 327 327 327 322 313 306 307 310 311 311 310 310 309 309 309 309 309 311 312
327 315 319 323 315 320 321 315 317 317 315 314 312 316 320 318 320 316 311 315 314 315 319 319 318 317 315 314 312 312 311 310 310 311 315 318 319 321 321 321 321 321 321 322 323 324 325 327 330 332 334 335 336 336 336 336 335 335 336 337 337 336 335 335 334 334 334 335 335 335 334 333 331 330 330 330 329 327 326 327 328 326 320 312 308 309 310 310 310 310 310 309 309 310 309 310 311
322 318 319 322 320 319 319 318 317 315 316 316 314 315 320 320 321 320 315 314 315 317 320 321 320 318 316 314 312 312 311 312 311 308 311 315 316 317 318 318 318 319 320 321 322 323 324 325 326 328 330 332 333 335 335 335 334 334 335 336 336 336 335 335 334 334 333 334 335 335 334 333 332 331 330 330 331 330 327 326 325 322 318 314 311 309 310 311 311 311 312 310 309 309 309 309 310
319 318 317 318 317 315 318 321 316 314 315 317 317 316 320 321 319 319 316 311 314 318 319 319 320 320 319 316 314 313 311 312 310 308 309 311 312 314 315 316 318 318 318 319 321 323 324 325 326 326 328 329 330 332 332 333 333 333 334 335 335 335 335 335 335 334 333 333 334 334 334 334 333 332 330 329 331 331 329 327 326 322 315 310 309 309 310 310 311 312 312 311 308 308 309 309 309
321 322 324 324 321 317 319 321 315 314 317 318 319 318 320 320 317 319 317 311 313 317 317 317 317 317 317 316 315 313 313 313 309 308 309 310 311 312 313 314 315 317 318 319 320 323 324 325 326 327 328 329 329 330 331 332 332 333 333 334 335 335 335 335 334 334 334 333 333 332 332 332 333 333 330 329 329 330 331 329 326 324 320 313 308 309 310 311 312 312 312 312 309 306 305 307 307
320 323 327 326 322 319 317 318 316 314 316 318 318 318 319 319 317 318 315 310 312 316 318 318 316 315 315 315 314 313 313 312 308 308 310 310 311 311 311 311 312 315 317 319 320 321 323 324 326 327 328 329 330 330 331 331 332 332 331 332 333 333 334 334 334 334 334 333 333 333 332 331 331 332 332 331 329 328 329 327 323 320 319 316 313 312 311 311 311 312 311 309 308 306 304 305 306
321 322 324 322 319 319 315 315 317 314 313 317 316 316 318 318 317 316 313 311 313 317 317 316 316 313 312 313 314 313 312 311 309 309 309 310 311 311 311 310 311 314 316 318 320 320 321 323 325 326 327 329 330 330 331 331 332 331 331 331 331 331 332 333 334 334 334 333 333 332 332 331 331 331 332 332 332 329 326 324 323 322 320 317 317 314 311 310 310 309 308 306 305 305 304 304 304
325 321 321 321 319 318 316 315 316 314 314 319 320 319 318 316 316 315 313 313 312 313 312 313 314 312 311 312 312 312 312 313 312 310 308 308 310 311 311 311 311 312 314 316 318 319 321 323 324 325 327 328 329 330 330 331 331 331 331 331 330 330 331 331 333 333 333 332 331 331 330 331 332 332 332 333 333 331 328 326 325 325 322 319 317 315 311 311 310 307 306 307 304 302 303 303 303
325 323 321 320 319 319 317 315 315 314 312 317 320 320 317 316 320 317 311 310 311 313 314 312 311 312 312 312 312 312 312 313 314 313 310 306 308 310 310 311 312 311 313 315 317 319 320 322 323 324 326 327 328 329 330 330 331 331 331 330 329 329 329 330 330 331 331 330 330 330 329 331 332 333 333 333 333 333 331 329 327 326 325 322 321 320 315 312 312 309 307 307 306 303 300 300 301
321 330 332 325 324 322 318 316 317 316 313 316 318 317 322 326 329 326 315 310 312 314 315 315 315 313 310 311 312 311 312 312 313 315 312 306 305 309 310 311 312 311 312 314 315 317 319 320 321 322 324 326 327 328 329 330 330 330 329 329 328 327 327 327 327 328 328 328 329 329 329 330 332 332 332 332 332 332 331 329 328 328 327 326 325 324 320 315 313 313 311 308 307 307 303 300 299
315 327 332 328 332 329 321 319 321 320 317 314 312 314 330 336 330 329 322 316 317 314 314 317 319 314 310 312 311 309 311 314 315 315 312 306 305 307 309 309 310 311 312 313 314 316 318 319 321 323 324 325 327 327 329 329 329 329 329 328 327 326 325 325 325 326 327 328 328 328 328 329 331 331 332 332 331 331 330 329 329 330 329 328 326 324 321 317 315 314 312 310 309 309 307 301 298
315 319 322 326 335 330 322 320 318 320 315 311 313 315 322 325 322 322 319 319 322 318 317 318 315 312 311 312 311 310 311 315 317 317 314 309 306 306 308 309 310 311 312 312 313 315 317 319 320 322 323 324 326 327 328 328 328 328 328 327 327 326 325 325 326 326 326 327 327 328 328 328 329 330 330 331 331 330 329 328 328 329 328 326 324 322 320 319 317 315 313 311 311 309 307 304 301
315 317 322 328 330 325 326 326 321 322 316 315 325 322 314 317 318 318 316 318 321 318 318 318 315 314 315 312 313 314 314 315 317 322 325 315 306 307 310 312 312 311 312 312 312 314 316 318 320 321 323 324 325 326 326 327 327 327 327 327 327 326 326 325 325 325 325 325 325 326 326 327 327 327 328 328 330 331 330 329 328 329 328 325 323 322 321 319 317 315 312 311 310 307 307 307 305
318 316 322 326 326 328 334 336 330 321 313 318 328 317 312 323 324 320 316 314 317 318 318 318 317 319 323 325 324 323 321 317 318 327 330 315 306 309 312 313 313 313 312 312 313 313 314 316 318 320 322 323 324 325 326 326 327 326 326 326 326 326 326 325 324 324 323 323 323 323 323 324 324 324 324 325 327 329 330 330 329 328 328 327 325 324 322 320 317 315 312 310 308 307 307 307 306
318 314 320 322 324 329 332 333 327 317 313 324 327 313 312 321 327 327 316 311 319 322 319 319 321 324 329 333 331 327 328 324 323 327 318 308 310 312 312 313 314 314 314 313 313 313 314 315 317 318 319 321 322 323 324 325 325 325 325 325 325 325 324 324 323 322 322 321 321 321 321 321 321 321 321 322 323 326 328 328 328 327 327 326 327 326 322 319 317 316 315 311 309 308 308 308 308
315 319 322 321 325 329 332 332 323 313 319 328 323 316 313 313 325 330 316 312 319 319 319 321 323 325 326 329 329 331 336 334 333 333 317 306 310 313 312 314 314 313 314 314 313 314 314 315 315 317 318 318 319 320 321 321 322 323 323 323 324 323 323 322 322 321 321 320 320 320 320 319 319 319 319 320 321 323 325 327 327 327 326 324 324 324 322 320 319 319 317 313 311 310 311 310 309
318 326 325 320 324 326 328 331 321 315 325 324 317 316 313 312 322 324 318 318 317 316 318 319 319 323 325 327 333 338 343 342 342 346 330 315 313 313 313 314 313 314 314 314 314 314 314 315 315 315 316 317 317 318 318 319 319 320 320 321 321 321 322 321 321 321 320 320 319 319 318 318 317 317 317 318 319 320 321 323 325 325 325 324 322 321 321 320 319 317 315 312 311 309 309 308 307
320 322 323 319 321 319 321 328 321 319 322 316 315 316 312 314 318 315 316 319 317 316 320 320 318 323 329 328 331 338 341 340 341 343 341 335 321 310 311 313 313 314 314 314 315 314 314 314 314 315 315 315 315 316 316 317 317 318 318 318 319 319 319 319 319 319 319 318 317 317 316 316 316 316 316 316 316 317 317 318 319 320 321 322 321 320 319 319 319 317 315 313 311 310 310 308 306
317 318 322 321 321 316 318 323 316 316 319 313 313 315 315 318 315 313 316 313 313 315 317 322 321 322 326 325 328 338 339 336 338 340 347 345 319 305 309 313 312 314 314 314 315 314 315 314 314 314 314 314 314 314 314 314 315 316 316 317 317 317 318 318 318 317 317 317 316 316 316 315 315 315 315 315 315 315 315 315 315 315 316 316 316 315 315 316 318 318 317 316 315 314 314 312 308
317 317 316 318 325 323 320 321 319 320 321 316 311 314 322 321 311 312 315 313 317 319 317 320 320 317 318 324 333 341 338 335 338 341 342 329 309 306 313 313 312 314 313 313 314 314 314 314 314 314 313 313 313 313 313 313 313 314 314 315 316 316 316 316 317 317 316 316 316 315 315 315 315 315 315 314 314 314 313 313 313 313 313 313 311 311 314 316 317 317 318 317 317 316 315 313 310
317 315 312 315 322 325 318 315 319 319 317 317 314 317 326 320 311 313 311 311 317 319 319 319 319 318 316 325 339 338 334 335 337 340 341 323 306 307 312 311 313 314 313 313 314 313 313 313 313 313 313 313 313 312 312 312 312 313 313 314 315 315 316 316 316 316 316 316 315 315 315 315 315 314 314 314 313 313 313 312 312 312 312 311 310 310 312 315 316 316 316 316 315 316 314 312 310
316 313 317 318 317 324 320 310 312 313 311 316 316 319 323 316 313 317 313 313 314 314 318 317 319 322 317 320 335 336 331 333 333 337 338 322 307 307 311 312 313 313 313 313 313 312 313 312 313 313 312 313 312 312 312 312 312 312 312 313 314 314 315 315 315 315 315 315 315 315 315 314 314 314 313 313 312 312 312 312 311 311 311 310 309 310 312 313 314 315 315 315 315 315 314 312 310
319 319 320 316 311 319 322 314 318 318 315 319 317 316 320 317 316 319 315 313 315 315 317 315 316 321 316 317 327 331 330 333 335 337 333 316 307 311 314 313 314 314 314 313 313 314 314 313 313 313 312 313 312 312 312 311 312 312 312 312 313 314 314 314 315 315 315 315 314 315 314 314 314 313 313 312 312 311 311 311 311 310 311 311 310 310 311 312 313 314 314 314 315 315 314 312 311
318 321 318 316 317 320 317 313 320 319 314 322 321 313 314 316 319 321 314 313 319 317 313 314 315 316 315 316 320 324 328 333 334 337 338 319 308 312 315 314 315 315 314 315 314 314 314 314 314 313 313 314 313 313 312 311 312 311 312 312 312 313 313 314 314 314 314 314 314 314 314 313 313 312 312 312 311 311 311 311 310 310 311 311 310 310 311 312 312 313 313 313 314 313 313 311 311
313 314 311 317 324 323 318 315 317 317 315 319 322 318 317 318 319 319 313 315 321 316 312 315 317 315 314 315 319 323 326 329 326 330 340 323 309 312 314 313 315 314 314 315 314 314 314 314 313 313 314 313 313 313 312 312 312 311 311 312 312 312 312 313 313 313 313 313 313 313 313 313 312 312 312 311 311 311 310 310 310 311 311 311 310 309 310 312 312 312 312 312 312 312 311 311 310
315 315 313 316 318 317 318 316 314 319 321 320 319 317 319 321 319 317 314 315 319 318 316 318 316 315 314 315 320 323 323 326 324 329 336 319 308 311 313 311 313 313 313 313 312 313 312 312 313 312 313 313 312 313 312 312 312 311 311 311 311 311 312 312 312 312 313 312 313 313 312 312 312 311 311 310 310 310 310 310 310 311 311 310 310 309 309 310 311 311 311 310 310 310 310 309 309
315 315 316 316 316 316 317 315 313 315 317 320 319 313 316 323 317 312 311 312 315 316 316 317 314 313 314 315 320 324 325 325 323 329 330 313 307 309 309 309 310 309 310 310 310 311 310 311 311 311 311 312 312 312 312 312 311 311 311 311 311 311 311 311 311 311 312 312 312 312 312 312 311 311 311 310 310 310 310 310 310 311 311 310 309 308 308 308 309 310 310 309 309 309 308 309 308
Wind_Speed
8 8 7 6 5 3 1 4 2 2 4 2 0 1 2 3 2 2 3 1 1 1 1 1 3 3 3 5 7 6 4 4 5 4 3 4 10 24 20 16 19 20 20 18 17 16 14 13 13 12 12 13 12 11 12 12 13 13 14 15 15 15 15 15 15 15 14 14 15 15 15 15 14 12 12 14 14 14 15 14 15 15 15 18 19 19 19 18 17 17 16 17 17 18 19 20 20
7 7 6 5 4 1 2 3 3 3 5 1 2 2 3 2 1 5 6 4 3 2 2 5 6 6 6 6 6 4 2 1 3 3 1 4 15 21 18 17 20 20 20 18 17 17 15 14 13 13 12 13 12 11 12 12 13 13 13 15 14 15 15 15 15 15 14 14 15 14 15 14 13 12 13 13 13 14 14 15 14 14 15 18 20 19 19 18 17 17 17 17 18 19 20 20 20
6 6 4 4 2 2 1 4 2 1 4 2 4 3 1 1 5 7 7 5 5 5 4 5 6 5 5 6 3 2 1 2 2 1 2 11 14 16 17 17 20 20 19 18 17 17 16 14 14 14 13 13 12 12 12 12 12 13 13 13 13 14 14 15 14 14 14 14 14 14 15 13 12 12 13 13 13 14 14 15 14 14 17 19 20 19 19 18 17 17 18 18 18 19 19 19 19
6 5 4 3 0 3 4 4 2 4 3 3 3 4 2 5 8 6 6 4 4 4 3 3 4 1 3 4 1 2 1 1 2 1 4 13 13 17 19 18 21 19 19 17 17 17 16 15 15 14 14 14 12 12 11 11 12 12 12 12 12 12 13 14 14 13 14 14 14 14 14 12 12 13 13 13 13 14 14 13 13 14 18 20 20 19 18 17 17 17 18 19 19 19 19 18 18
6 5 4 1 2 1 3 3 2 4 3 5 2 4 5 6 7 5 3 2 3 3 2 3 2 2 2 3 1 1 3 1 3 3 7 13 15 19 20 20 21 19 19 17 17 17 16 16 15 15 14 14 12 12 11 11 12 12 11 11 12 11 12 13 13 13 13 14 13 14 14 12 12 13 13 14 14 13 13 12 13 15 19 19 19 18 17 17 17 17 17 18 18 17 17 16 15
5 4 2 3 2 1 3 2 2 2 5 5 4 5 5 6 6 5 2 1 1 2 3 3 3 2 2 1 0 3 2 1 3 6 12 15 17 21 21 21 20 19 19 17 17 16 16 17 16 16 15 14 13 12 11 10 11 12 11 11 11 11 11 12 13 13 13 14 13 14 15 12 12 12 13 14 14 13 13 14 15 17 19 18 18 17 17 17 16 16 16 17 16 15 14 14 14
4 3 2 4 2 2 3 3 4 3 2 5 4 5 7 6 5 5 3 1 1 1 2 2 4 6 1 2 1 1 2 2 3 8 15 17 20 21 21 21 20 20 19 18 18 17 17 17 17 17 16 15 13 13 12 11 11 11 11 10 10 10 10 11 12 13 13 14 13 14 13 12 12 12 13 14 13 13 14 14 15 17 19 18 18 17 17 16 16 16 15 15 15 14 14 15 16
3 1 1 3 2 4 4 2 2 2 1 3 4 5 8 7 5 6 3 2 2 0 3 2 3 5 0 2 2 2 3 4 4 9 16 18 22 21 21 22 21 21 19 19 18 18 18 18 18 18 17 16 14 13 12 11 11 11 10 9 10 10 10 10 11 13 14 14 13 13 12 11 12 11 12 12 12 15 16 14 16 18 18 18 17 17 16 16 15 15 15 15 15 15 15 15 17
2 1 0 3 2 3 3 2 0 2 2 3 3 3 5 5 5 5 3 0 1 2 3 5 2 2 2 2 1 4 3 5 8 12 17 20 23 22 22 22 22 22 20 19 19 19 19 19 19 18 18 16 15 14 13 12 11 11 10 9 10 9 9 10 10 12 14 16 14 11 10 10 10 10 11 12 12 15 16 14 16 18 18 17 17 16 15 15 15 15 15 15 15 15 15 15 16
2 2 1 2 3 3 2 1 1 1 3 4 4 4 4 5 4 3 4 2 1 4 2 3 3 2 4 3 2 3 1 6 12 16 18 21 23 22 22 21 22 22 21 21 19 19 19 19 19 19 18 17 16 14 14 13 12 11 10 9 9 9 9 9 10 10 12 16 16 12 9 10 10 11 12 12 12 14 15 14 15 17 17 17 17 16 15 15 15 15 15 15 15 15 16 15 16
2 4 3 4 4 2 2 3 3 3 4 4 3 4 4 5 5 1 2 3 1 3 2 1 3 3 4 0 3 2 2 8 17 22 21 22 22 22 21 20 22 21 21 21 20 20 19 18 18 18 17 17 16 14 14 13 12 12 10 10 9 8 8 8 9 10 11 14 17 13 9 11 12 12 12 12 12 13 13 12 14 17 17 17 16 15 15 15 15 15 15 15 15 15 15 15 16
1 3 4 4 2 3 3 4 3 4 5 3 2 3 4 5 5 3 4 5 1 2 3 2 3 5 4 1 3 4 3 12 20 23 23 22 22 21 19 19 21 20 20 20 20 20 19 19 18 18 17 17 16 15 15 14 13 12 11 10 9 8 8 8 9 9 10 13 16 14 12 12 13 13 11 10 11 11 11 10 13 17 18 17 16 14 14 15 15 15 15 14 14 14 14 15 15
3 1 5 3 3 3 3 4 2 2 5 3 4 2 6 5 4 7 7 4 3 4 3 5 6 5 3 2 3 5 5 15 20 24 23 23 22 20 18 18 20 19 18 19 20 20 20 19 19 19 18 17 16 16 16 16 15 13 13 11 10 9 8 9 9 9 10 12 14 14 14 13 14 14 12 10 9 10 11 11 13 18 17 16 14 13 14 15 15 15 15 14 14 14 14 14 15
3 3 5 3 1 3 5 3 1 3 3 5 2 3 5 3 4 6 8 5 3 5 1 4 7 5 2 1 3 4 9 17 21 24 23 23 23 21 19 18 19 19 18 18 20 21 21 20 19 19 18 18 17 17 17 17 16 15 13 12 11 10 9 9 9 9 9 11 12 13 14 14 14 15 14 13 11 11 12 13 14 18 17 15 14 14 16 16 16 15 15 15 15 14 14 15 15
3 2 5 3 2 1 4 2 3 5 4 5 3 5 4 2 3 5 6 6 5 5 1 1 4 2 2 4 3 6 16 20 22 24 23 22 21 21 20 19 20 19 19 19 20 21 22 21 21 20 19 18 17 17 18 18 17 15 14 13 12 11 10 9 8 8 8 9 10 11 12 13 13 13 13 13 13 12 13 14 15 17 18 14 13 15 17 16 15 15 15 15 15 15 15 15 16
3 4 5 3 1 1 4 2 3 3 5 5 2 5 5 2 2 4 4 5 4 1 2 0 1 1 3 7 3 9 23 22 22 24 22 21 18 18 20 21 21 21 21 21 20 21 22 22 22 21 20 19 17 17 18 19 18 16 15 14 13 11 10 9 8 8 8 8 9 10 11 11 11 11 11 11 12 12 13 15 16 17 18 14 12 16 17 15 15 15 15 15 15 15 15 15 15
3 4 4 2 2 3 4 4 5 4 5 5 2 4 7 1 1 2 1 5 5 2 3 2 2 2 3 5 8 8 27 24 22 23 20 21 17 17 19 22 23 23 24 23 21 21 23 23 22 22 21 19 18 17 19 20 19 17 16 14 13 12 11 10 9 9 8 8 9 9 10 10 10 10 10 10 11 12 13 15 16 16 18 15 13 17 17 15 15 14 14 14 14 14 14 14 14
4 3 4 2 3 3 5 7 7 4 4 6 5 6 8 5 2 1 2 5 3 3 3 3 4 3 2 6 4 14 29 24 23 23 20 20 17 17 19 22 24 24 25 25 23 22 23 24 23 23 22 21 19 17 19 20 20 18 17 15 14 13 12 11 11 11 10 9 9 9 10 10 10 9 9 10 11 13 14 15 16 16 17 16 14 17 17 15 15 14 14 13 13 13 13 13 13
4 3 3 3 5 4 5 7 6 3 4 6 4 4 5 6 5 3 2 0 1 3 2 5 4 4 5 3 8 23 28 24 24 23 21 20 19 19 20 22 25 25 26 27 26 24 24 24 24 24 23 22 20 19 20 21 21 20 18 17 16 15 14 13 12 12 11 10 10 10 10 10 10 10 9 10 11 14 14 15 16 16 17 17 15 17 17 16 16 15 14 13 13 13 12 12 13
2 4 3 5 6 4 4 5 6 4 4 7 4 2 2 3 4 2 4 4 1 5 5 1 3 6 1 3 12 21 23 22 22 22 22 21 20 21 22 24 27 28 29 29 27 26 25 26 26 26 25 24 23 21 21 22 22 21 20 19 18 17 16 15 14 13 13 12 11 11 11 11 11 11 10 11 12 14 15 15 15 15 18 18 16 19 19 17 17 15 14 13 13 13 12 12 12
2 4 4 6 4 2 4 6 5 4 5 7 5 4 1 2 2 2 7 6 2 6 7 7 8 8 6 5 10 18 20 19 20 20 21 21 21 22 23 26 28 28 28 28 27 27 26 27 28 27 26 25 25 24 23 24 24 23 22 21 20 19 18 17 16 15 14 14 13 12 12 13 12 12 12 12 13 15 16 16 16 16 19 18 18 20 19 18 17 16 15 14 14 13 13 13 13
2 0 4 5 4 2 3 5 3 3 5 6 7 6 4 2 1 3 9 7 6 7 8 11 10 10 12 11 12 15 16 17 18 20 21 23 22 23 24 25 25 24 25 27 28 29 28 27 28 29 28 27 27 26 25 25 25 25 24 23 22 21 20 19 18 17 16 16 15 14 14 14 14 14 13 13 13 15 16 17 17 18 19 18 18 19 19 18 17 16 16 15 15 14 13 13 13
2 2 2 3 4 2 1 2 3 3 7 7 7 5 3 4 1 3 8 8 8 6 6 8 8 11 15 15 14 13 13 16 19 23 25 26 26 26 27 27 27 26 27 29 29 29 29 29 29 29 30 29 28 28 27 26 26 27 26 25 24 23 23 22 21 20 19 18 17 17 16 16 16 16 15 14 14 15 16 17 18 19 19 18 19 20 19 19 18 17 16 16 15 14 14 14 13
4 2 1 1 3 2 2 2 1 4 7 6 4 4 3 6 3 1 5 10 8 5 4 4 9 12 15 13 13 13 15 19 23 28 30 30 32 32 30 29 29 27 27 29 30 30 31 31 30 29 30 30 30 29 28 28 28 28 27 27 26 25 25 24 24 22 21 20 19 19 18 17 17 17 17 16 15 15 16 17 18 19 19 19 19 20 20 20 19 18 17 17 16 15 14 14 13
3 3 2 1 1 2 4 4 4 4 4 2 5 5 2 5 3 1 7 11 8 3 2 4 10 12 11 12 13 12 13 18 21 24 27 29 30 27 26 26 26 26 28 30 31 31 32 32 31 30 30 31 31 31 30 30 29 29 29 29 28 27 27 26 25 24 23 22 21 21 20 19 19 19 18 17 17 16 17 17 18 19 19 19 20 21 21 20 20 19 18 18 17 16 15 14 14
2 3 2 3 2 4 4 3 4 4 2 3 5 2 4 2 1 3 8 9 4 3 6 6 9 9 10 10 12 12 12 16 20 22 25 26 24 23 26 26 27 29 31 31 32 33 33 33 33 32 32 31 31 31 31 31 31 30 30 30 30 29 28 27 26 25 24 24 23 23 22 21 20 20 19 19 18 18 18 18 19 20 20 20 20 21 21 21 20 20 20 19 18 17 16 15 14
3 5 5 4 2 3 3 2 3 3 1 2 4 3 4 3 2 4 6 4 2 6 6 5 8 9 10 9 10 13 13 18 23 22 20 20 21 25 28 29 31 32 31 32 34 35 34 35 35 34 33 32 32 32 32 32 32 31 31 31 31 30 29 29 28 27 26 26 25 25 24 23 22 21 20 20 20 19 19 19 20 21 22 22 21 21 22 21 21 21 20 19 18 17 16 16 15
5 7 5 6 6 2 4 3 2 3 1 1 5 2 4 3 2 5 3 6 1 6 6 5 7 7 9 9 9 10 14 20 21 18 18 22 27 31 32 34 37 35 34 37 38 35 35 36 36 35 34 34 33 33 33 33 33 33 32 32 32 31 30 30 31 30 29 28 27 27 26 25 25 24 23 22 21 20 20 20 21 22 23 23 23 22 22 22 21 21 20 19 18 17 17 17 17
3 5 4 6 8 3 4 2 2 2 1 1 3 1 4 3 5 5 1 5 2 4 5 5 6 6 6 8 7 8 12 16 15 18 25 29 32 33 35 40 39 37 39 40 36 35 37 37 37 36 35 35 35 35 34 33 33 33 33 32 32 32 31 31 32 32 32 30 28 29 29 28 27 26 25 24 22 21 21 21 22 23 24 24 24 23 23 23 22 21 20 20 19 19 18 18 19
1 4 4 2 7 4 4 2 2 1 1 3 2 1 6 8 9 5 2 3 4 2 5 6 6 6 5 6 6 7 11 13 16 24 30 31 32 31 35 39 37 37 39 36 35 37 38 38 38 37 37 37 37 36 35 34 33 33 34 33 33 34 33 33 34 33 33 32 30 29 31 31 29 29 28 26 25 23 22 21 23 24 25 25 25 25 25 24 23 22 21 21 20 20 20 20 21
2 3 3 2 1 4 6 3 1 4 0 3 6 2 6 9 9 7 6 1 5 5 7 7 6 6 5 6 6 8 10 15 21 27 30 32 32 31 33 36 34 35 36 35 37 39 38 37 38 38 38 38 38 37 36 35 35 34 34 34 34 35 34 35 35 34 33 34 32 30 31 32 32 31 30 29 28 26 24 23 23 25 26 27 27 27 26 25 24 23 22 22 21 21 21 21 21
4 2 2 3 2 5 8 3 3 4 0 4 7 2 6 8 9 6 4 1 7 7 7 7 6 7 7 6 6 7 9 15 21 25 29 31 33 33 35 36 34 35 36 37 38 36 36 37 37 38 38 39 39 39 37 36 35 36 36 35 35 35 35 35 35 35 34 35 34 33 33 34 34 33 32 33 32 31 29 26 24 25 27 29 29 29 28 27 25 24 23 23 23 23 23 22 23
4 3 2 2 2 3 5 2 1 1 1 3 3 3 4 5 7 6 4 4 5 5 6 7 6 8 7 6 7 7 8 10 15 23 30 32 33 35 36 37 36 36 36 37 36 35 36 36 37 38 38 39 39 39 38 37 36 36 37 36 36 35 35 35 35 34 35 36 36 35 36 37 37 35 36 36 34 34 34 31 28 27 28 30 31 31 30 28 27 26 25 24 24 24 24 25 25
3 2 2 3 3 2 2 3 3 3 2 1 2 2 6 7 8 9 5 4 3 2 6 7 6 7 7 7 7 7 8 8 10 19 29 33 34 36 36 36 36 35 35 35 36 36 36 35 36 37 38 38 38 38 38 38 37 36 36 37 36 36 36 36 36 35 35 36 36 35 35 35 37 37 38 38 35 34 35 34 32 32 32 32 33 33 33 31 30 29 27 26 25 25 26 27 27
5 3 3 2 2 3 3 3 3 3 2 2 0 2 9 11 10 11 8 1 2 6 7 6 7 7 7 7 7 8 8 10 13 20 27 29 31 34 35 35 35 35 35 35 35 35 35 34 35 36 37 37 37 37 37 37 36 35 36 36 36 36 37 36 36 36 35 36 36 36 34 34 35 37 38 38 36 33 34 35 35 34 34 34 35 35 34 33 32 31 30 29 28 27 26 27 27
9 6 5 5 3 4 5 4 4 1 3 3 5 5 8 10 10 11 10 2 1 8 6 6 7 7 8 7 8 9 9 12 16 20 24 25 27 30 32 33 34 34 34 33 33 33 34 34 34 35 36 36 35 35 35 35 34 35 35 35 36 37 37 37 36 36 36 36 37 36 36 35 34 36 37 38 37 34 35 38 38 37 36 36 36 36 37 37 36 35 33 32 31 28 25 27 27
7 6 5 4 4 2 4 3 5 0 3 3 4 4 8 10 11 12 10 5 4 9 9 9 9 7 8 8 9 10 11 12 13 17 21 22 24 26 27 29 30 30 31 31 32 33 34 34 34 35 35 35 35 35 35 36 35 35 34 35 37 36 36 36 36 37 36 36 36 35 35 35 35 35 36 37 37 36 38 39 38 36 36 37 37 37 38 39 38 36 35 33 32 30 28 28 28
6 6 5 2 3 2 3 2 4 3 1 3 2 3 9 10 11 12 9 6 7 10 10 10 11 10 8 8 11 12 10 10 9 13 18 19 20 21 22 24 26 28 31 32 33 34 35 34 35 35 34 35 36 37 37 37 38 37 36 36 37 35 35 36 36 37 37 36 35 35 35 35 35 36 36 36 36 36 37 37 36 36 36 37 37 37 37 37 36 35 34 32 31 31 30 30 31
5 4 5 3 2 2 3 3 4 4 1 3 4 5 9 10 11 12 10 9 9 9 9 9 10 10 9 9 12 12 10 10 9 10 14 17 18 17 17 20 24 28 30 31 32 33 33 33 34 34 34 35 36 37 37 38 38 37 36 35 33 33 34 35 36 36 35 36 36 36 35 35 36 37 37 37 36 36 36 36 37 37 38 39 38 36 36 37 36 35 35 34 32 30 28 30 34
4 4 5 3 2 1 1 2 3 3 2 2 3 5 8 7 7 10 8 6 7 7 8 9 9 10 12 11 10 9 11 12 10 9 10 12 14 14 17 20 23 26 27 28 30 31 32 33 34 35 35 36 36 37 37 37 36 34 34 32 30 29 30 31 32 33 34 35 36 36 36 36 37 37 37 37 37 37 37 39 40 39 39 40 39 38 39 40 40 38 37 37 34 31 28 30 35
1 3 6 4 3 4 2 1 2 3 3 2 3 4 6 5 5 7 5 3 5 6 6 8 9 10 11 10 9 9 9 9 9 10 10 8 11 15 17 20 21 23 26 29 30 31 33 33 34 34 35 35 36 36 36 35 34 32 31 29 26 25 26 26 27 30 33 34 36 36 37 37 37 37 37 37 38 38 37 37 38 39 38 40 42 41 43 44 44 44 43 41 40 37 34 33 35
2 3 6 7 7 6 3 1 3 4 4 4 4 3 5 5 5 7 5 6 7 5 5 9 10 8 7 9 10 8 7 7 8 10 10 8 12 15 15 17 19 22 26 28 29 29 30 31 31 32 33 34 34 34 34 34 34 33 32 30 28 26 26 27 29 31 33 34 36 36 36 37 37 37 37 37 38 39 38 36 35 37 39 43 46 46 45 46 46 47 46 45 44 42 38 33 35
1 4 5 7 7 8 5 3 4 1 2 3 4 3 4 7 5 8 6 7 9 7 6 9 8 7 7 8 9 7 6 7 7 8 9 9 11 13 14 15 16 20 22 23 24 25 26 28 28 30 31 32 32 32 32 33 34 34 34 34 33 32 31 32 34 33 33 34 35 35 36 36 37 37 37 37 38 38 40 39 39 41 41 42 44 44 44 45 47 48 47 47 46 43 41 37 37
3 3 6 8 7 8 6 5 4 2 3 4 5 4 2 6 6 7 5 6 10 10 9 10 8 8 8 8 9 8 7 7 6 7 7 7 10 11 13 13 12 15 16 16 19 21 23 25 26 27 28 29 30 30 31 32 34 35 35 36 36 35 35 34 33 31 31 31 32 34 35 36 37 38 38 38 37 37 37 38 38 39 37 36 37 41 44 45 46 46 46 46 45 43 43 41 38
3 3 7 6 6 7 5 6 4 0 1 4 5 1 2 6 7 6 5 4 9 10 10 9 8 8 8 7 7 7 7 6 6 7 6 8 9 9 10 10 8 9 11 12 13 16 19 21 22 23 25 26 28 28 29 31 32 34 35 35 36 36 36 34 31 29 29 29 30 31 32 34 35 36 37 37 37 37 37 37 38 38 37 35 35 38 43 44 44 44 45 45 45 44 45 42 37
4 6 7 6 6 6 5 5 4 2 2 4 6 1 2 5 7 4 3 2 7 9 7 7 8 7 6 6 6 5 5 5 4 5 6 8 9 7 5 5 5 5 6 9 10 11 14 17 19 21 23 24 25 26 28 29 31 32 33 34 35 35 34 33 31 29 29 28 29 30 31 32 33 33 34 35 36 37 37 37 38 38 38 38 37 37 39 41 42 42 43 46 47 45 45 45 42
7 6 7 7 6 5 4 3 4 3 3 6 6 2 1 3 6 4 3 4 5 3 4 5 6 6 5 5 6 6 5 5 5 5 5 7 7 6 4 3 3 3 3 6 8 10 12 14 16 19 20 21 22 24 25 27 28 30 32 33 34 35 33 32 31 31 31 30 31 32 32 32 32 33 33 34 36 37 37 37 36 35 34 32 32 33 36 39 40 41 43 46 47 46 46 48 48
6 5 5 5 4 5 4 4 4 1 5 6 5 2 2 4 6 4 4 6 5 3 2 3 5 8 7 6 6 6 5 5 6 5 6 7 7 7 7 5 3 3 2 4 6 9 10 12 14 16 18 19 20 21 23 25 26 28 30 32 33 33 33 32 32 34 33 33 33 33 32 32 32 32 32 33 35 37 38 40 40 39 38 36 33 31 33 35 37 39 41 44 46 46 45 44 45
5 5 6 5 2 3 2 3 1 3 6 4 2 2 2 6 7 7 9 9 7 7 7 5 5 7 7 7 7 6 5 5 5 5 5 6 5 7 9 8 6 4 3 3 5 7 9 11 12 15 16 17 19 20 22 23 25 27 28 30 31 32 32 33 34 34 34 33 33 33 32 33 33 33 33 34 35 35 36 38 40 41 42 43 41 39 37 36 36 38 40 42 44 45 45 43 43
4 6 5 4 3 2 2 4 2 4 4 3 3 2 3 4 4 9 12 9 6 7 7 7 7 7 7 7 7 7 5 3 3 5 5 5 6 8 10 9 7 6 5 5 5 6 8 10 12 14 16 16 17 20 21 23 24 25 27 28 29 30 31 33 33 34 33 33 32 32 33 33 33 34 34 35 34 34 34 35 36 38 39 39 40 40 40 38 38 40 41 42 44 46 47 46 46
3 4 5 5 5 4 4 4 3 4 3 3 3 2 3 2 1 6 8 7 6 5 6 6 7 6 5 7 6 6 6 5 4 4 4 5 7 9 10 9 8 7 7 7 7 8 9 10 12 14 15 16 17 19 20 22 23 24 25 27 28 29 30 32 33 33 33 32 32 32 33 33 33 34 34 33 33 32 33 33 33 33 34 35 35 37 37 37 37 40 42 44 45 46 46 46 46
1 2 5 3 5 5 3 3 5 3 1 2 2 3 4 3 6 7 4 4 6 6 5 5 6 6 5 5 6 5 6 6 5 5 4 5 7 8 9 9 10 9 8 8 8 9 10 11 13 15 16 17 18 20 21 21 22 23 24 26 27 28 30 31 32 32 32 32 32 32 33 33 33 33 33 32 31 31 31 31 31 31 31 32 33 35 36 36 35 36 39 42 44 44 43 43 44
2 2 3 5 4 7 5 2 0 3 1 3 1 4 5 3 7 8 3 4 5 5 6 6 6 7 4 3 5 5 6 6 6 6 5 6 7 8 8 9 11 12 10 9 9 9 11 12 13 15 17 18 19 21 21 22 22 23 24 26 27 28 29 31 32 32 32 32 32 33 33 33 33 32 32 32 31 31 31 31 31 31 30 29 31 34 36 36 35 35 36 38 40 41 40 41 42
5 3 5 4 2 5 4 2 2 4 2 5 1 4 5 2 4 6 4 5 6 5 4 4 6 6 3 2 4 5 6 6 6 6 6 6 8 11 12 13 14 15 14 12 10 10 10 11 13 15 18 19 20 21 21 22 22 24 24 25 27 28 29 30 31 31 31 31 33 33 33 33 33 32 32 32 31 31 31 31 31 30 29 28 29 32 34 34 34 34 35 37 38 38 39 40 41
4 4 3 4 3 2 2 2 1 1 2 5 4 4 3 4 5 4 2 6 8 7 3 2 2 2 1 3 4 4 5 5 6 6 6 6 10 14 15 16 15 14 13 12 11 12 12 13 14 16 19 20 21 23 23 24 23 24 25 25 26 28 29 30 30 30 30 32 33 33 33 34 33 32 32 31 32 32 31 31 31 30 29 27 28 30 32 34 35 35 36 37 38 38 39 40 41
3 2 3 3 3 4 3 3 3 3 3 3 4 4 3 6 6 5 7 9 9 7 4 6 6 4 2 0 2 1 3 3 5 6 5 6 9 12 12 12 11 9 9 9 9 10 11 12 14 16 18 20 21 22 24 25 25 24 25 26 27 27 28 29 29 30 31 33 34 33 34 34 33 32 32 32 32 32 32 31 31 30 30 28 28 28 30 33 35 37 37 37 37 37 38 39 40
3 3 4 2 1 2 2 1 3 4 3 2 3 4 5 5 4 8 10 9 8 6 6 8 6 5 4 3 4 3 1 1 4 4 4 6 7 9 7 7 8 7 8 9 8 10 11 12 14 16 17 20 20 21 22 23 24 24 26 27 27 28 27 28 29 30 32 33 34 34 34 34 33 33 32 32 32 32 32 31 30 31 30 30 29 29 30 31 33 36 37 37 37 36 37 38 38
6 6 7 7 4 4 3 2 1 2 3 4 3 4 6 5 4 6 6 4 6 6 6 9 6 5 5 4 4 4 4 5 6 5 5 6 7 8 8 8 8 8 9 10 11 13 14 15 16 16 18 21 22 21 21 21 23 24 25 26 27 28 28 28 29 30 32 33 34 35 34 33 34 34 33 32 33 32 31 31 31 32 31 31 30 30 30 31 32 34 35 36 36 36 37 37 37
Wind_Direction
318 308 281 260 276 253 322 55 79 326 70 86 15 103 221 207 224 162 134 189 85 324 250 72 86 100 95 128 153 152 139 162 166 146 209 256 151 158 165 162 162 162 159 157 158 157 154 149 147 147 141 132 127 120 111 103 97 92 85 81 80 82 87 91 95 94 95 96 97 100 100 100 105 108 98 95 93 89 87 83 82 83 91 97 97 94 91 91 91 91 92 95 98 96 92 91 92
319 300 277 249 281 248 221 70 96 336 55 104 263 158 245 319 185 177 177 187 142 161 118 98 92 76 61 89 116 107 58 336 181 179 253 154 145 158 168 166 166 165 162 160 160 159 156 152 150 149 143 136 131 123 114 107 101 97 90 84 82 84 89 95 99 97 97 99 99 101 100 102 108 106 100 99 92 86 85 86 86 85 94 101 99 96 95 95 94 92 94 100 101 97 94 93 94
317 285 280 238 272 38 88 44 94 74 82 163 255 237 269 152 195 203 203 191 148 151 128 93 74 71 52 51 65 81 33 329 171 202 126 147 150 162 168 168 169 169 165 161 161 160 157 154 150 150 146 141 135 128 121 111 106 102 95 88 86 87 91 96 100 100 100 102 101 102 101 101 102 100 101 101 94 88 85 85 84 88 98 103 101 99 98 98 96 95 97 103 102 98 96 95 96
314 282 285 231 196 29 61 44 128 120 127 189 236 254 242 187 205 220 225 209 160 139 115 67 48 21 52 69 63 76 172 305 157 171 150 164 166 164 165 168 170 169 166 162 163 160 156 154 151 150 147 144 139 133 126 114 108 105 99 93 90 89 93 94 96 101 102 105 104 104 103 99 97 98 101 99 93 89 86 82 77 90 103 104 103 101 100 100 99 99 101 103 102 101 100 99 99
310 287 287 224 114 43 94 71 111 112 178 183 161 254 244 203 204 204 223 245 193 154 142 88 73 298 45 108 140 140 201 165 156 176 163 175 171 161 163 167 168 167 166 164 163 160 156 156 152 150 149 147 144 137 130 117 112 110 105 100 96 91 94 97 97 100 104 107 105 105 105 98 96 98 101 99 95 91 88 83 80 95 105 105 105 103 101 101 101 102 103 105 105 104 103 102 100
307 281 314 58 101 127 115 104 137 162 215 168 148 243 233 202 205 182 134 303 222 168 161 95 132 149 58 339 142 164 199 135 169 186 172 174 168 163 165 167 168 167 166 165 164 162 159 157 152 152 152 152 149 141 135 126 121 119 114 108 103 97 95 100 104 105 107 109 105 105 106 100 100 103 106 104 103 102 96 89 88 99 107 107 105 103 103 102 102 103 104 106 106 105 103 102 102
300 273 350 60 59 41 103 146 171 199 208 166 174 197 194 204 203 149 124 141 93 63 94 109 145 112 78 309 104 175 303 222 183 180 177 171 165 164 167 169 170 169 167 165 165 166 163 159 154 155 156 156 153 147 144 138 132 127 123 117 110 104 101 104 109 113 114 112 107 108 114 116 117 113 106 104 105 108 103 94 92 101 108 108 107 104 103 102 102 102 102 102 102 103 103 104 107
297 269 15 86 41 28 93 118 188 191 150 212 224 183 180 194 170 141 159 156 155 55 72 169 143 90 265 359 121 279 330 201 176 176 180 171 166 165 170 173 171 170 169 168 167 167 166 161 159 159 160 159 158 154 153 149 141 134 130 126 119 114 110 110 114 118 121 118 111 116 125 127 126 116 105 106 111 109 105 101 98 104 109 109 109 105 102 102 102 104 102 101 104 105 105 107 110
344 24 358 85 77 31 57 29 296 206 279 266 233 188 170 171 143 134 153 109 196 137 112 189 162 73 196 60 255 287 343 188 172 174 177 170 169 167 173 176 174 171 169 172 169 169 168 165 163 163 164 164 164 161 159 156 149 143 140 135 129 124 119 116 117 120 126 126 117 121 130 128 128 120 113 116 118 112 108 105 103 108 112 111 110 107 104 102 102 105 105 106 109 109 108 109 111
34 22 148 78 80 50 24 330 286 231 278 272 226 203 165 154 143 136 145 149 160 123 160 183 92 81 144 121 252 299 335 176 164 168 172 169 169 169 174 177 177 173 169 173 172 172 171 168 168 167 168 168 168 166 163 162 156 150 149 146 137 132 129 122 120 120 129 132 124 123 133 134 132 123 120 124 123 115 110 107 106 112 115 114 113 109 107 105 107 110 109 111 113 113 111 109 112
38 350 97 73 70 108 186 195 278 271 282 298 271 234 175 147 130 123 119 136 81 102 167 138 97 122 105 122 251 293 238 170 165 167 168 169 171 172 175 177 180 177 171 173 174 176 174 173 174 173 174 173 174 172 169 170 165 158 158 156 146 140 138 129 125 124 131 138 132 126 131 133 131 127 126 129 126 120 116 112 112 116 119 118 116 114 115 113 113 116 115 115 119 120 116 116 119
100 331 69 84 132 183 191 163 254 278 310 313 237 246 161 131 131 163 142 141 152 114 201 211 152 134 88 315 261 298 234 177 172 169 169 173 174 174 176 177 181 181 176 175 177 179 179 178 178 178 180 181 183 183 178 176 173 168 167 165 158 151 147 139 132 129 132 143 142 135 132 131 131 133 134 135 132 127 121 116 119 123 123 122 120 120 122 119 118 123 125 124 128 128 123 124 124
125 152 91 98 169 159 143 138 232 297 327 269 209 217 135 137 195 183 144 120 133 135 249 219 147 109 108 254 274 303 233 186 174 169 172 178 179 177 179 178 179 182 180 180 181 183 184 182 180 180 183 185 188 188 185 181 178 176 174 173 167 160 155 149 141 136 137 147 153 148 140 136 137 139 139 139 135 130 128 126 127 128 127 126 124 124 127 125 127 130 131 131 131 130 128 129 128
143 153 110 116 97 116 141 125 199 168 255 252 219 169 145 179 206 166 132 116 190 176 244 195 145 118 124 254 296 288 218 191 174 171 172 177 182 181 183 183 182 185 185 187 187 187 188 186 184 183 184 186 189 188 186 184 183 181 179 179 174 169 163 157 151 145 143 150 158 158 151 148 150 150 150 149 146 138 136 134 131 132 131 132 132 134 137 135 136 136 136 136 133 131 130 131 131
148 132 91 109 51 69 167 158 158 155 226 226 166 156 152 264 154 141 152 146 212 222 84 107 139 164 183 177 228 227 198 186 174 174 171 171 179 182 188 189 188 191 191 193 191 192 192 190 189 187 189 190 191 189 188 186 186 186 183 184 181 177 172 164 160 155 149 152 158 163 162 160 161 163 161 162 160 150 144 139 136 137 134 138 146 144 142 142 143 143 142 140 136 134 133 133 133
121 108 72 85 79 161 181 165 130 132 241 213 159 145 130 289 147 148 211 143 157 278 38 271 85 351 188 172 240 214 186 177 172 175 173 170 173 180 190 192 192 194 196 197 196 197 195 194 193 192 194 194 193 192 190 189 189 189 188 189 188 184 181 173 168 165 159 157 160 165 168 169 169 170 170 172 171 162 153 147 142 142 140 143 156 150 143 144 146 146 147 145 142 140 139 140 140
75 84 71 80 148 199 187 169 167 163 228 220 231 176 137 235 270 159 231 90 121 71 31 266 302 358 204 230 311 196 175 173 172 174 173 173 175 177 186 192 192 194 197 200 200 200 200 198 197 196 198 197 197 195 192 192 190 190 192 193 193 192 191 183 175 174 171 168 168 169 171 173 172 173 176 176 176 173 165 154 147 147 146 144 155 155 148 148 151 151 151 150 149 147 146 147 147
61 84 100 143 181 200 182 177 193 168 181 199 204 183 144 157 196 151 66 54 74 66 19 326 316 327 293 287 305 164 168 172 174 174 174 176 179 179 184 191 194 196 198 201 202 203 204 203 200 199 200 199 199 198 194 194 193 192 195 197 197 197 197 192 186 181 179 178 177 176 176 178 176 174 177 178 179 177 170 161 154 151 149 147 153 157 154 156 157 157 158 157 156 155 154 151 151
87 114 109 202 201 203 199 176 189 170 161 179 183 180 161 169 164 139 151 104 70 122 306 344 333 310 357 25 140 155 166 172 176 177 179 180 183 185 187 192 196 199 200 202 204 205 207 207 204 202 203 202 201 202 198 198 197 195 196 200 200 201 202 200 195 190 187 186 185 184 183 184 182 178 177 177 177 174 170 166 162 157 153 151 154 159 160 162 164 165 165 166 163 162 161 157 156
145 124 111 234 210 217 236 187 201 216 158 153 168 177 166 184 159 151 162 157 169 190 212 316 256 255 324 106 143 154 165 172 179 182 185 188 190 190 191 194 197 200 202 204 204 205 208 209 206 205 206 205 204 204 201 200 201 199 199 202 205 205 206 204 202 199 195 194 192 191 190 189 189 185 180 177 176 174 172 171 170 164 156 156 161 165 168 170 171 172 170 171 170 168 166 162 161
147 123 170 223 183 167 227 197 220 229 165 151 141 122 139 226 177 148 143 135 254 243 218 197 201 202 175 178 161 159 168 176 183 187 191 195 196 196 198 199 200 202 204 204 205 206 209 210 209 207 208 208 207 206 204 204 204 203 202 205 208 209 209 207 207 206 203 201 198 196 196 195 195 192 187 183 181 179 178 177 176 169 163 165 171 173 174 174 175 175 175 175 173 172 171 167 167
110 182 199 198 145 128 206 187 208 182 133 118 121 144 176 180 148 153 150 158 229 233 219 208 195 175 167 174 171 166 174 182 189 193 196 199 200 201 202 204 203 204 205 205 207 208 209 211 211 210 209 209 210 210 208 206 207 207 207 208 210 211 212 210 209 209 208 206 203 201 200 199 199 198 195 191 188 187 186 183 179 176 173 174 178 179 178 178 180 180 180 179 177 176 174 171 172
128 264 245 203 179 172 201 151 214 155 121 135 153 172 151 125 203 183 169 198 221 219 231 217 190 169 164 161 166 172 180 187 195 199 199 201 203 203 203 204 204 204 206 207 209 209 209 211 213 214 212 211 212 212 212 209 209 211 211 211 212 212 213 212 211 211 211 210 208 206 204 204 203 202 201 198 195 193 192 189 185 182 182 183 183 183 182 183 186 185 184 184 181 179 178 175 175
95 172 280 202 191 214 342 39 161 131 135 180 168 125 138 164 186 123 199 232 237 248 281 202 160 154 156 156 172 183 186 192 199 202 202 204 205 206 205 205 206 206 208 210 211 210 211 211 212 215 216 214 213 213 214 213 212 213 213 213 214 214 214 214 213 212 212 212 212 211 210 209 207 207 206 204 201 198 197 195 191 188 189 189 188 187 188 188 190 190 189 188 186 184 182 179 178
86 170 213 120 114 315 343 33 61 80 123 151 114 116 210 199 168 122 233 246 251 252 41 123 139 143 159 170 183 188 192 199 204 207 209 211 211 211 211 210 210 210 211 212 212 212 213 213 212 215 217 217 216 214 215 216 215 215 215 214 215 216 217 218 218 216 213 214 214 214 213 212 211 211 211 209 206 203 201 199 197 195 196 196 192 191 193 193 193 194 194 192 190 188 186 184 182
186 149 151 109 14 341 360 30 40 41 63 72 114 122 308 247 211 265 247 248 236 110 86 117 137 150 177 183 187 190 195 203 207 209 212 215 216 218 218 216 215 215 215 215 214 215 214 214 214 214 216 217 218 217 217 218 218 217 217 218 217 216 219 221 223 222 218 216 217 216 216 215 215 215 214 212 209 207 204 203 202 200 199 201 199 196 197 199 198 198 198 196 193 190 189 190 188
154 105 92 75 5 331 21 52 353 7 43 60 143 196 304 311 304 256 267 289 155 108 98 139 153 169 188 190 196 197 200 206 206 207 212 216 218 221 222 219 220 220 218 218 218 217 216 216 216 215 216 217 218 218 219 221 221 220 219 221 221 219 219 221 224 225 223 220 220 220 219 218 218 219 217 214 212 210 208 207 206 204 203 203 203 201 200 202 204 203 203 201 198 195 191 190 190
119 118 88 8 355 341 23 76 333 355 88 80 128 167 306 347 300 228 280 332 198 140 136 165 178 190 197 197 202 202 211 214 208 205 209 213 216 218 220 220 221 221 220 222 221 219 218 218 218 217 216 216 218 218 220 221 223 224 221 221 223 223 221 220 222 224 225 224 222 221 221 221 219 220 219 217 214 212 212 211 209 207 206 206 205 205 203 204 206 205 205 204 203 200 195 190 189
114 108 99 337 360 4 340 39 306 356 118 300 106 69 300 253 233 218 304 357 37 141 169 194 207 213 213 211 212 212 222 220 210 213 216 217 217 217 220 222 221 221 223 224 223 221 221 220 219 218 217 218 220 220 220 220 222 225 225 224 224 223 222 222 222 222 224 226 225 222 221 222 221 222 222 219 216 215 215 215 214 211 209 209 207 206 206 206 206 205 203 203 203 202 198 191 189
125 64 99 355 8 344 318 6 314 90 114 320 103 212 278 253 247 241 299 10 76 158 222 225 229 231 230 221 223 228 228 221 214 220 223 223 223 222 224 226 224 224 226 225 224 225 224 222 220 220 219 219 221 222 222 222 222 225 228 228 226 224 222 223 224 223 223 224 227 227 223 222 223 223 223 221 218 216 218 220 219 216 212 211 208 208 209 208 207 206 204 202 202 202 200 195 192
81 51 57 46 75 266 304 329 159 134 153 18 99 169 265 269 277 276 296 300 161 213 238 233 240 243 240 230 226 237 235 226 224 226 227 228 228 227 228 230 228 227 228 227 227 228 226 224 222 221 220 221 222 222 223 223 224 225 227 228 227 226 224 224 225 224 223 222 226 230 227 225 225 225 225 224 220 217 220 225 225 221 216 212 210 209 210 210 209 209 207 204 201 201 201 197 195
42 97 321 345 171 258 309 305 163 144 284 44 96 198 269 277 281 278 321 69 170 210 242 246 250 248 246 241 232 239 245 238 237 237 235 234 232 231 232 233 232 230 230 230 230 229 227 227 225 223 222 222 223 223 224 224 225 226 227 227 228 228 228 227 227 226 225 223 225 229 230 226 224 226 227 226 223 219 218 223 227 225 219 214 211 211 211 212 212 211 211 210 205 200 199 197 196
1 106 195 266 179 265 314 310 288 129 129 27 85 211 265 289 277 278 341 70 138 201 254 264 256 252 249 244 240 240 251 251 245 243 241 238 236 235 235 235 235 234 233 232 232 230 229 228 226 226 225 225 225 225 226 226 226 227 228 229 229 229 230 229 230 229 226 225 226 227 228 226 224 224 226 226 225 223 220 219 221 222 221 217 214 213 213 214 215 213 211 212 213 207 201 198 195
295 60 146 228 190 204 283 286 301 39 101 284 23 230 250 275 284 288 311 50 65 272 263 264 255 256 253 245 250 246 247 252 246 242 241 240 239 239 239 239 239 238 238 237 235 233 232 230 228 228 228 227 227 227 228 228 228 229 230 231 231 231 231 231 231 231 228 226 226 227 227 227 227 226 226 225 226 229 228 223 219 216 215 214 214 214 214 214 216 217 214 211 213 212 206 201 197
192 182 160 210 213 202 242 253 252 48 72 225 349 276 262 272 283 289 290 346 327 274 261 264 261 257 258 253 250 246 245 248 245 242 243 243 242 242 242 241 241 240 240 239 237 235 234 232 230 230 229 228 229 229 229 230 229 229 229 231 233 233 233 232 231 231 231 228 227 228 229 229 230 229 226 224 224 229 233 231 227 221 215 211 210 211 210 210 210 213 215 212 209 210 209 203 197
172 178 150 155 177 224 241 253 264 130 110 228 227 236 264 273 281 285 288 338 287 275 278 271 261 253 256 254 250 249 246 248 250 250 251 250 248 247 245 243 242 241 240 238 237 235 233 232 231 230 230 228 227 227 227 227 226 226 227 228 230 232 232 231 231 232 232 231 231 231 231 232 232 230 227 225 225 226 230 231 227 222 218 213 209 209 211 213 212 211 212 210 205 202 203 201 198
141 133 115 144 169 233 251 265 304 40 132 250 240 247 269 271 274 273 279 324 313 276 273 263 257 252 248 248 253 251 245 252 259 260 258 255 253 251 247 244 240 238 237 235 234 234 234 232 230 230 230 227 225 225 224 224 223 223 224 225 228 229 230 230 231 232 231 231 230 231 233 235 236 234 230 227 227 227 227 226 222 218 217 214 214 216 216 216 214 211 208 206 204 200 197 199 198
101 133 129 127 175 215 251 247 316 350 145 262 348 320 273 262 268 268 271 289 270 251 250 254 254 252 251 251 255 254 255 265 266 261 258 255 254 251 244 241 236 234 234 232 231 233 233 231 230 231 230 227 226 226 225 225 225 225 225 226 228 229 230 230 231 232 233 232 232 232 234 237 238 237 235 233 232 230 226 223 221 221 221 218 216 218 217 214 211 209 204 199 200 202 200 199 196
83 116 131 137 204 233 285 297 333 6 55 266 341 332 276 261 260 262 256 251 252 246 239 244 249 252 253 246 249 256 265 271 265 258 258 254 253 250 242 237 234 235 235 232 231 231 230 228 229 231 230 229 228 228 227 228 229 229 229 230 231 231 232 232 233 233 235 235 236 235 235 236 236 235 235 234 234 234 231 228 227 225 224 221 217 216 216 215 212 208 206 202 198 198 202 202 198
89 108 129 164 245 163 229 294 330 6 60 261 312 305 280 280 282 274 261 248 265 271 254 248 243 241 245 246 249 252 255 264 273 273 268 261 257 250 242 238 236 235 233 231 230 228 227 228 229 229 230 231 230 229 229 230 230 230 229 231 234 235 236 237 237 236 236 236 237 237 235 234 234 233 233 233 233 234 233 231 228 226 225 224 221 221 219 216 213 211 209 207 201 196 197 201 201
53 137 138 160 202 173 185 300 339 354 20 28 1 320 293 316 329 295 301 330 294 289 291 273 251 240 250 264 265 252 248 258 269 274 274 268 257 250 245 242 239 234 232 233 231 228 228 229 229 229 229 230 230 230 229 228 227 226 225 227 231 234 236 237 235 234 234 235 236 236 235 233 232 233 234 234 235 235 234 230 225 225 229 231 229 226 222 217 215 215 213 210 207 204 201 201 200
293 217 176 174 172 164 172 35 57 35 356 349 22 360 293 316 320 276 307 345 307 301 304 272 262 264 269 270 265 259 260 255 250 263 275 276 266 261 256 246 238 236 236 236 234 232 230 230 230 229 229 230 230 230 229 226 224 224 223 222 224 226 230 231 232 233 232 233 235 236 236 234 233 234 234 235 235 237 239 239 235 234 235 233 229 226 222 218 216 216 214 211 211 212 206 201 200
224 234 178 154 132 129 143 116 82 85 264 314 41 107 263 308 302 269 306 334 307 303 288 271 278 288 277 265 267 264 255 251 249 259 268 272 270 266 263 255 242 239 240 238 235 233 232 232 231 230 231 231 231 230 228 226 225 224 225 225 226 226 228 233 235 237 238 238 239 238 238 237 235 236 236 237 238 239 241 240 240 240 236 231 226 222 219 218 217 217 215 214 214 212 207 204 204
212 229 128 122 118 129 141 110 93 200 241 326 13 109 233 296 269 269 322 334 309 302 288 288 294 287 278 269 269 264 251 248 252 263 270 269 266 264 268 271 261 250 247 242 237 234 232 232 233 233 233 232 232 231 229 229 228 228 228 229 231 231 234 239 241 241 242 242 243 242 242 242 240 239 238 238 239 240 238 236 237 239 238 234 228 224 222 221 220 217 215 215 213 210 209 210 209
231 195 118 118 120 124 122 96 91 26 356 315 316 107 189 274 273 300 347 327 293 289 285 296 303 297 294 282 273 270 267 261 249 258 273 278 283 282 278 284 284 266 255 248 242 238 234 233 233 233 234 234 234 233 233 233 233 233 233 232 233 236 238 241 243 244 245 244 245 245 246 246 245 244 241 240 240 240 240 240 241 243 245 242 236 231 227 224 221 218 216 216 212 210 212 214 214
185 142 97 76 73 77 76 90 102 49 17 250 256 214 184 267 286 312 2 268 259 272 283 288 294 299 294 291 306 316 309 304 287 270 270 288 311 320 303 293 295 284 264 251 244 238 233 232 232 233 235 236 236 236 236 236 236 235 236 235 236 239 240 241 243 245 246 246 247 248 248 248 248 247 244 241 240 240 240 240 240 242 243 244 243 240 233 227 225 224 223 220 216 214 215 217 219
137 108 73 56 34 31 43 54 75 58 307 255 248 252 175 267 281 256 208 218 220 246 305 304 320 339 330 320 338 345 338 332 321 305 295 313 338 1 6 337 306 300 268 247 239 236 233 231 233 234 237 238 239 240 240 240 239 238 238 239 240 242 242 242 243 244 245 246 247 249 250 251 251 249 247 243 241 239 239 239 239 240 242 243 243 241 237 231 230 231 229 223 220 219 220 220 221
106 89 87 80 4 7 22 360 34 106 257 264 263 274 171 218 262 252 243 256 233 204 223 271 324 341 338 336 336 332 333 333 332 333 329 335 351 6 12 11 350 326 288 255 241 237 236 236 237 239 241 243 243 244 244 244 243 242 242 242 243 245 245 245 245 247 247 247 248 250 251 251 252 251 249 247 245 243 242 241 242 243 246 247 246 245 243 237 233 231 226 221 220 221 221 222 222
75 96 98 92 6 7 352 311 341 217 247 274 284 275 210 228 250 256 260 264 250 227 214 219 272 297 307 325 324 312 306 309 315 316 317 325 331 341 352 358 351 340 320 291 263 251 249 246 247 249 249 250 250 251 250 249 248 247 247 246 247 247 247 247 248 250 250 250 251 252 251 251 252 252 252 251 252 251 249 248 247 246 247 248 250 251 250 247 241 235 229 224 223 223 224 225 226
119 134 126 123 127 102 261 267 285 256 259 291 290 264 258 272 264 247 249 254 248 236 224 225 247 267 285 299 297 291 293 296 297 300 304 309 313 322 332 336 334 327 317 304 287 276 268 261 260 260 261 260 258 257 256 254 254 253 252 251 250 250 250 250 251 252 253 254 254 254 254 255 255 256 256 257 259 258 257 256 254 253 252 252 253 253 252 251 247 242 238 234 231 231 231 230 230
172 156 131 145 157 158 210 217 211 243 274 303 296 249 207 197 256 240 237 258 277 261 247 256 264 271 292 299 299 311 323 335 332 314 300 293 309 322 326 328 325 313 303 298 293 287 281 278 275 272 273 271 267 264 261 259 260 258 256 254 253 252 253 253 254 255 255 256 256 257 258 258 258 260 261 263 263 262 262 261 260 257 255 255 256 254 251 249 247 243 241 239 236 235 234 231 230
245 123 106 164 184 142 139 183 175 175 307 302 263 234 216 204 276 275 228 251 290 289 296 310 297 306 332 312 312 329 325 327 337 343 340 322 329 336 333 335 334 323 309 302 303 300 297 295 290 286 285 281 275 270 267 266 265 263 260 257 256 255 254 254 254 255 256 257 258 259 261 261 262 263 264 264 264 263 263 263 262 261 258 257 257 254 250 249 247 243 240 238 236 234 232 231 230
169 131 170 213 172 113 113 211 79 80 244 269 215 248 292 328 294 300 310 282 302 307 311 321 300 312 346 293 295 320 317 323 334 335 333 324 332 343 345 346 344 339 330 323 325 318 308 304 298 294 292 287 281 275 272 271 268 265 263 260 258 256 254 255 256 257 258 260 260 261 262 263 263 263 264 264 264 263 262 262 262 262 259 258 258 254 250 250 248 246 243 240 239 237 236 234 233
127 178 207 193 117 90 108 185 360 44 243 275 268 243 289 324 279 321 338 281 282 277 293 337 313 316 352 308 307 314 307 320 329 329 330 329 344 354 358 0 357 352 344 338 343 340 326 315 304 298 296 292 289 285 279 274 270 267 266 263 260 258 257 257 258 259 261 261 261 261 261 263 263 264 264 263 263 262 261 260 260 261 258 256 258 255 251 250 249 248 248 246 245 244 241 238 235
130 180 174 118 138 171 95 146 186 138 235 282 303 279 268 208 230 306 277 225 246 250 204 112 263 258 348 333 341 335 335 353 348 346 343 338 350 356 359 3 6 7 359 350 351 349 341 329 314 305 302 300 298 293 288 282 275 270 269 267 264 262 260 260 260 260 261 261 261 261 262 263 264 264 264 262 262 261 260 259 259 258 255 253 257 256 252 250 249 250 250 249 248 245 241 239 237
56 101 98 79 136 166 156 153 166 169 200 264 310 318 274 226 218 218 220 215 223 232 169 158 202 192 176 233 89 54 18 15 341 336 331 331 347 353 357 360 360 2 353 341 338 338 334 323 312 305 302 299 295 292 290 288 283 277 272 269 266 264 262 262 262 262 261 262 262 263 263 264 264 265 263 262 261 260 260 259 259 258 253 250 254 256 253 252 250 249 249 249 248 245 241 240 239
115 119 152 180 81 107 157 161 119 138 164 192 283 298 269 252 215 197 219 221 209 205 153 151 185 190 201 209 163 157 165 253 278 293 293 305 329 337 340 337 330 322 310 306 314 323 322 312 304 300 296 293 291 290 289 289 288 283 277 272 268 267 266 265 264 263 263 263 264 264 264 264 265 264 263 262 261 260 259 258 257 256 251 249 253 255 255 255 254 252 250 249 248 246 243 242 241
167 175 186 182 154 124 154 244 242 122 154 171 193 268 263 251 214 200 229 226 197 194 140 128 152 181 197 214 203 199 204 225 245 254 262 280 304 320 326 326 325 318 307 315 331 335 330 321 314 306 299 295 293 291 292 292 290 286 282 278 273 270 268 266 264 264 265 265 265 264 264 264 264 264 263 262 261 260 259 257 255 254 250 248 252 255 255 256 256 255 253 251 249 248 247 245 243